Home   Weather   Arica   Past weeks

Flag for Chile Past Weather in Arica, Chile — Yesterday and Last 2 Weeks

Now
70 °F

Sunny.


Feels Like: 70 °F
Forecast: N/A
Wind: 16 mph from Southwest

Location: Arica Airport

Current Time: Apr 26, 2017 at 6:40:38 pm

Latest Report: Apr 26, 2017 at 6:00 pm


Visibility: 10 mi

Pressure: 29.92 "Hg

Humidity: 69%

Dew Point: 59 °F

Location of AricaLocation

Past Weather in Arica — Graph

°F

Arica Temperature Yesterday

Maximum temperature yesterday: 75 °F (at 12:00 pm)
Minimum temperature yesterday: 68 °F (at 8:00 pm)
Average temperature yesterday: 71 °F

High & Low Weather Summary for the Past Weeks

 TemperatureHumidityPressure
High77 °F (Apr 19, 1:00 pm)83% (Apr 23, 5:00 am)30.04 "Hg (Apr 23, 5:00 am)
Low61 °F (Apr 15, 7:00 am)50% (Apr 18, 1:00 pm)29.83 "Hg (Apr 11, 5:00 pm)
Average69 °F67%29.92 "Hg
* Reported Apr 11 5:00 pm — Apr 26 5:00 pm, Arica, Weather by CustomWeather, © 2017

Note: Actual official high and low records may vary slightly from our data, if they occured in-between our weather recording intervals... More about our weather records

Advertising

Arica Weather History for the Previous 24 Hours

Scroll right to see more
 ConditionsComfort  
Time TempWeatherWind HumidityBarometerVisibility
5:00 pm
Wed, Apr 26
72 °FSunny.15 mph65%29.89 "Hg10 mi
4:00 pm73 °FSunny.14 mph61%29.89 "Hg10 mi
3:00 pm73 °FPartly sunny.10 mph61%29.92 "HgN/A
2:00 pm73 °FPartly sunny.9 mph61%29.92 "HgN/A
1:00 pm72 °FPartly sunny.8 mph65%29.95 "HgN/A
12:00 pm72 °FPartly sunny.6 mph65%29.98 "HgN/A
11:00 am70 °FPartly sunny.2 mph69%29.98 "HgN/A
10:00 am68 °FOvercast.2 mph78%29.98 "HgN/A
9:00 am68 °FOvercast.No wind73%29.95 "HgN/A
8:00 am68 °FOvercast.2 mph73%29.95 "Hg5 mi
7:00 am68 °FPassing clouds.2 mph73%29.92 "HgN/A
6:00 am68 °FPassing clouds.1 mph73%29.92 "HgN/A
5:00 am70 °FPassing clouds.5 mph60%29.92 "HgN/A
4:00 am68 °FPassing clouds.3 mph64%29.92 "HgN/A
3:00 am66 °FPassing clouds.5 mph73%29.95 "HgN/A
2:00 am66 °FPassing clouds.6 mph73%29.95 "HgN/A
1:00 am64 °FClear.8 mph78%29.98 "Hg10 mi
12:00 am66 °FClear.9 mph73%29.98 "Hg10 mi
11:00 pm
Tue, Apr 25
68 °FClear.2 mph73%29.98 "Hg10 mi
10:00 pm68 °FPassing clouds.3 mph78%29.98 "HgN/A
9:00 pm68 °FClear.6 mph73%29.95 "Hg10 mi
8:00 pm68 °FClear.12 mph78%29.95 "Hg10 mi
7:00 pm70 °FSunny.16 mph73%29.92 "Hg10 mi
6:00 pm72 °FSunny.17 mph65%29.92 "Hg10 mi
Weather by CustomWeather, © 2017

See weather overviewHow to use our weather pages